Time,TemperatureF,DewpointF,PressureIn,WindDirection,WindDirectionDegrees,WindSpeedMPH,WindSpeedGustMPH,Humidity,HourlyPrecipIn,Conditions,Clouds,dailyrainin,SoftwareType,DateUTC
2013-04-13 00:02:00,58.0,49.0,29.65,SSE,148,13.0,20.0,73,0.00,,,0.00,,2013-04-13 07:02:00,
2013-04-13 00:13:00,58.0,49.0,29.65,SSE,148,13.0,20.0,73,0.00,,,0.00,,2013-04-13 07:13:00,
2013-04-13 00:22:00,58.0,50.0,29.65,SSE,149,13.0,19.0,74,0.00,,,0.00,,2013-04-13 07:22:00,
2013-04-13 00:33:00,58.0,50.0,29.65,SSE,149,13.0,19.0,74,0.00,,,0.00,,2013-04-13 07:33:00,
2013-04-13 00:42:00,58.0,50.0,29.65,SSE,149,13.0,19.0,74,0.00,,,0.00,,2013-04-13 07:42:00,
2013-04-13 00:54:00,56.0,49.0,29.65,SE,140,12.0,14.0,78,0.00,,,0.00,,2013-04-13 07:54:00,
2013-04-13 01:02:00,56.0,49.0,29.65,ESE,115,14.0,16.0,78,0.00,,,0.00,,2013-04-13 08:02:00,
2013-04-13 01:13:00,56.0,49.0,29.65,ESE,115,14.0,16.0,78,0.00,,,0.00,,2013-04-13 08:13:00,
2013-04-13 01:23:00,55.0,49.0,29.65,ESE,116,15.0,18.0,81,0.00,,,0.00,,2013-04-13 08:23:00,
2013-04-13 01:33:00,55.0,49.0,29.65,ESE,116,15.0,18.0,81,0.00,,,0.00,,2013-04-13 08:33:00,
2013-04-13 01:43:00,55.0,49.0,29.65,ESE,116,15.0,18.0,81,0.00,,,0.00,,2013-04-13 08:43:00,
2013-04-13 01:53:00,54.0,49.0,29.65,ESE,117,13.0,18.0,83,0.00,,,0.00,,2013-04-13 08:53:00,
2013-04-13 02:13:00,52.0,48.0,29.65,ESE,118,15.0,19.0,86,0.00,,,0.00,,2013-04-13 09:13:00,
2013-04-13 02:22:00,52.0,49.0,29.65,ESE,118,16.0,19.0,89,0.00,,,0.00,,2013-04-13 09:22:00,
2013-04-13 02:33:00,52.0,49.0,29.65,ESE,118,16.0,19.0,89,0.00,,,0.00,,2013-04-13 09:33:00,
2013-04-13 02:43:00,52.0,49.0,29.65,ESE,118,16.0,19.0,89,0.00,,,0.00,,2013-04-13 09:43:00,
2013-04-13 02:54:00,52.0,49.0,29.65,ESE,118,13.0,16.0,88,0.00,,,0.00,,2013-04-13 09:54:00,
2013-04-13 03:03:00,52.0,49.0,29.64,ESE,117,13.0,16.0,89,0.00,,,0.00,,2013-04-13 10:03:00,
2013-04-13 03:14:00,52.0,49.0,29.64,ESE,121,12.0,18.0,89,0.00,,,0.00,,2013-04-13 10:14:00,
2013-04-13 03:22:00,52.0,49.0,29.64,ESE,121,12.0,18.0,89,0.00,,,0.00,,2013-04-13 10:22:00,
2013-04-13 03:43:00,52.0,49.0,29.64,ESE,121,12.0,18.0,89,0.00,,,0.00,,2013-04-13 10:43:00,
2013-04-13 03:54:00,52.0,49.0,29.64,ESE,102,9.0,12.0,89,0.00,,,0.00,,2013-04-13 10:54:00,
2013-04-13 04:12:00,52.0,49.0,29.63,ESE,116,11.0,13.0,89,0.00,,,0.00,,2013-04-13 11:12:00,
2013-04-13 04:22:00,51.0,48.0,29.63,ESE,119,11.0,14.0,91,0.00,,,0.00,,2013-04-13 11:22:00,
2013-04-13 04:32:00,51.0,48.0,29.63,ESE,119,11.0,14.0,91,0.00,,,0.00,,2013-04-13 11:32:00,
2013-04-13 04:42:00,51.0,48.0,29.63,ESE,119,11.0,14.0,91,0.00,,,0.00,,2013-04-13 11:42:00,
2013-04-13 04:53:00,52.0,49.0,29.63,ESE,120,11.0,13.0,89,0.00,,,0.00,,2013-04-13 11:53:00,
2013-04-13 05:02:00,52.0,49.0,29.63,ESE,121,9.0,12.0,90,0.00,,,0.00,,2013-04-13 12:02:00,
2013-04-13 05:14:00,52.0,49.0,29.63,ESE,121,9.0,12.0,90,0.00,,,0.00,,2013-04-13 12:14:00,
2013-04-13 05:22:00,52.0,49.0,29.63,ESE,110,9.0,11.0,90,0.00,,,0.00,,2013-04-13 12:22:00,
2013-04-13 05:33:00,52.0,49.0,29.63,ESE,110,9.0,11.0,90,0.00,,,0.00,,2013-04-13 12:33:00,
2013-04-13 05:43:00,52.0,49.0,29.63,ESE,110,9.0,11.0,90,0.00,,,0.00,,2013-04-13 12:43:00,
2013-04-13 06:02:00,53.0,49.0,29.62,ESE,110,10.0,11.0,86,0.00,,,0.00,,2013-04-13 13:02:00,
2013-04-13 06:14:00,53.0,49.0,29.62,ESE,110,10.0,11.0,86,0.00,,,0.00,,2013-04-13 13:14:00,
2013-04-13 06:22:00,54.0,49.0,29.62,ESE,104,10.0,11.0,84,0.00,,,0.00,,2013-04-13 13:22:00,
2013-04-13 06:33:00,54.0,49.0,29.62,ESE,104,10.0,11.0,84,0.00,,,0.00,,2013-04-13 13:33:00,
2013-04-13 06:42:00,54.0,49.0,29.62,ESE,104,10.0,11.0,84,0.00,,,0.00,,2013-04-13 13:42:00,
2013-04-13 06:54:00,54.0,49.0,29.62,East,101,11.0,12.0,84,0.00,,,0.00,,2013-04-13 13:54:00,
2013-04-13 07:02:00,54.0,49.0,29.62,East,95,7.0,10.0,82,0.00,,,0.00,,2013-04-13 14:02:00,
2013-04-13 07:13:00,54.0,49.0,29.62,East,95,7.0,10.0,82,0.00,,,0.00,,2013-04-13 14:13:00,
2013-04-13 07:22:00,54.0,49.0,29.63,East,79,3.0,9.0,83,0.00,,,0.00,,2013-04-13 14:22:00,
2013-04-13 07:34:00,54.0,49.0,29.63,East,79,3.0,9.0,83,0.00,,,0.00,,2013-04-13 14:34:00,
2013-04-13 07:43:00,54.0,49.0,29.63,East,79,3.0,9.0,83,0.00,,,0.00,,2013-04-13 14:43:00,
2013-04-13 07:55:00,55.0,49.0,29.64,ESE,104,4.0,7.0,80,0.00,,,0.00,,2013-04-13 14:55:00,
2013-04-13 08:02:00,55.0,49.0,29.64,East,87,2.0,7.0,80,0.00,,,0.00,,2013-04-13 15:02:00,
2013-04-13 08:13:00,55.0,49.0,29.64,East,87,2.0,7.0,80,0.00,,,0.00,,2013-04-13 15:13:00,
2013-04-13 08:23:00,55.0,50.0,29.64,NE,49,3.0,7.0,82,0.00,,,0.00,,2013-04-13 15:23:00,
2013-04-13 08:33:00,55.0,50.0,29.64,NE,49,3.0,7.0,82,0.00,,,0.00,,2013-04-13 15:33:00,
2013-04-13 08:43:00,55.0,50.0,29.64,NE,49,3.0,7.0,82,0.00,,,0.00,,2013-04-13 15:43:00,
2013-04-13 08:55:00,54.0,49.0,29.64,East,84,6.0,10.0,83,0.00,,,0.00,,2013-04-13 15:55:00,
2013-04-13 09:03:00,54.0,50.0,29.65,North,0,0.0,5.0,85,0.00,,,0.00,,2013-04-13 16:03:00,
2013-04-13 09:13:00,54.0,50.0,29.65,North,0,0.0,5.0,85,0.00,,,0.00,,2013-04-13 16:13:00,
2013-04-13 09:22:00,50.0,47.0,29.65,SE,124,5.0,7.0,90,0.00,,,0.00,,2013-04-13 16:22:00,
2013-04-13 09:33:00,50.0,47.0,29.65,SE,124,5.0,7.0,90,0.00,,,0.00,,2013-04-13 16:33:00,
2013-04-13 09:43:00,50.0,47.0,29.65,SE,124,5.0,7.0,90,0.00,,,0.00,,2013-04-13 16:43:00,
2013-04-13 09:54:00,49.0,47.0,29.65,SE,126,6.0,8.0,93,0.00,,,0.00,,2013-04-13 16:54:00,
2013-04-13 10:03:00,49.0,47.0,29.65,SE,126,6.0,8.0,93,0.00,,,0.00,,2013-04-13 17:03:00,
2013-04-13 10:16:00,49.0,47.0,29.65,SE,126,6.0,8.0,93,0.00,,,0.00,,2013-04-13 17:16:00,
2013-04-13 10:23:00,49.0,47.0,29.66,SSE,156,1.0,9.0,94,0.00,,,0.00,,2013-04-13 17:23:00,
2013-04-13 10:38:00,49.0,47.0,29.66,SSE,156,1.0,9.0,94,0.00,,,0.00,,2013-04-13 17:38:00,
2013-04-13 10:44:00,49.0,47.0,29.66,SSE,156,1.0,9.0,94,0.00,,,0.00,,2013-04-13 17:44:00,
2013-04-13 11:00:00,49.0,48.0,29.67,North,0,0.0,0.0,95,0.00,,,0.00,,2013-04-13 18:00:00,
2013-04-13 11:14:00,49.0,47.0,29.67,North,0,0.0,6.0,94,0.00,,,0.00,,2013-04-13 18:14:00,
2013-04-13 11:22:00,49.0,48.0,29.67,SSE,166,4.0,7.0,95,0.00,,,0.00,,2013-04-13 18:22:00,
2013-04-13 11:32:00,49.0,48.0,29.67,SSE,166,4.0,7.0,95,0.00,,,0.00,,2013-04-13 18:32:00,
2013-04-13 11:42:00,49.0,48.0,29.67,SSE,166,4.0,7.0,95,0.00,,,0.00,,2013-04-13 18:42:00,
2013-04-13 11:53:00,49.0,48.0,29.68,North,0,0.0,1.0,95,0.00,,,0.00,,2013-04-13 18:53:00,
2013-04-13 12:02:00,49.0,48.0,29.68,North,0,0.0,5.0,95,0.00,,,0.00,,2013-04-13 19:02:00,
2013-04-13 12:12:00,49.0,48.0,29.68,North,0,0.0,5.0,95,0.00,,,0.00,,2013-04-13 19:12:00,
2013-04-13 12:22:00,49.0,48.0,29.69,North,0,0.0,6.0,95,0.00,,,0.00,,2013-04-13 19:22:00,
2013-04-13 12:32:00,49.0,48.0,29.69,North,0,0.0,6.0,95,0.00,,,0.00,,2013-04-13 19:32:00,
2013-04-13 12:41:00,49.0,48.0,29.69,North,0,0.0,6.0,95,0.00,,,0.00,,2013-04-13 19:41:00,
2013-04-13 12:52:00,50.0,49.0,29.68,North,0,0.0,0.0,96,0.00,,,0.00,,2013-04-13 19:52:00,
2013-04-13 13:01:00,50.0,49.0,29.67,North,0,0.0,5.0,95,0.00,,,0.00,,2013-04-13 20:01:00,
2013-04-13 13:12:00,50.0,49.0,29.67,North,0,0.0,5.0,95,0.00,,,0.00,,2013-04-13 20:12:00,
2013-04-13 13:21:00,52.0,51.0,29.66,North,0,0.0,4.0,96,0.00,,,0.00,,2013-04-13 20:21:00,
2013-04-13 13:32:00,52.0,51.0,29.66,North,0,0.0,4.0,96,0.00,,,0.00,,2013-04-13 20:32:00,
2013-04-13 13:42:00,52.0,51.0,29.66,North,0,0.0,4.0,96,0.00,,,0.00,,2013-04-13 20:42:00,
2013-04-13 13:52:00,54.0,53.0,29.67,SW,232,2.0,6.0,95,0.00,,,0.00,,2013-04-13 20:52:00,
2013-04-13 14:02:00,54.0,-99.9,29.66,SSW,204,2.0,6.0,-999,0.00,,,0.00,,2013-04-13 21:02:00,
2013-04-13 14:12:00,54.0,-99.9,29.66,SSW,204,2.0,6.0,-999,0.00,,,0.00,,2013-04-13 21:12:00,
2013-04-13 14:21:00,54.0,51.0,29.66,South,177,3.0,8.0,91,0.00,,,0.00,,2013-04-13 21:21:00,
2013-04-13 14:32:00,54.0,51.0,29.66,South,177,3.0,8.0,91,0.00,,,0.00,,2013-04-13 21:32:00,
2013-04-13 14:42:00,54.0,51.0,29.66,South,177,3.0,8.0,91,0.00,,,0.00,,2013-04-13 21:42:00,
2013-04-13 14:52:00,54.0,51.0,29.66,SSE,161,3.0,7.0,89,0.00,,,0.00,,2013-04-13 21:52:00,
2013-04-13 15:02:00,56.0,52.0,29.65,South,181,1.0,10.0,86,0.00,,,0.00,,2013-04-13 22:02:00,
2013-04-13 15:12:00,56.0,52.0,29.65,South,181,1.0,10.0,86,0.00,,,0.00,,2013-04-13 22:12:00,
2013-04-13 15:22:00,54.0,51.0,29.64,SSE,167,5.0,12.0,88,0.00,,,0.00,,2013-04-13 22:22:00,
2013-04-13 15:32:00,54.0,51.0,29.64,SSE,167,5.0,12.0,88,0.00,,,0.00,,2013-04-13 22:32:00,
2013-04-13 15:42:00,54.0,51.0,29.64,SSE,167,5.0,12.0,88,0.00,,,0.00,,2013-04-13 22:42:00,
2013-04-13 15:52:00,53.0,50.0,29.64,SSE,162,5.0,9.0,91,0.00,,,0.00,,2013-04-13 22:52:00,
2013-04-13 16:01:00,52.0,50.0,29.64,South,173,6.0,12.0,93,0.00,,,0.00,,2013-04-13 23:01:00,
2013-04-13 16:12:00,52.0,50.0,29.63,South,182,7.0,10.0,94,0.00,,,0.00,,2013-04-13 23:12:00,
2013-04-13 16:22:00,52.0,50.0,29.63,South,182,7.0,10.0,94,0.00,,,0.00,,2013-04-13 23:22:00,
2013-04-13 16:32:00,52.0,50.0,29.63,South,182,7.0,10.0,94,0.00,,,0.00,,2013-04-13 23:32:00,
2013-04-13 16:41:00,52.0,50.0,29.63,South,182,7.0,10.0,94,0.00,,,0.00,,2013-04-13 23:41:00,
2013-04-13 16:52:00,51.0,49.0,29.62,South,187,4.0,11.0,94,0.00,,,0.00,,2013-04-13 23:52:00,
2013-04-13 17:01:00,51.0,49.0,29.63,South,183,4.0,8.0,94,0.00,,,0.00,,2013-04-14 00:01:00,
2013-04-13 17:11:00,51.0,49.0,29.63,South,183,4.0,8.0,94,0.00,,,0.00,,2013-04-14 00:11:00,
2013-04-13 17:21:00,50.0,49.0,29.62,South,171,1.0,8.0,95,0.00,,,0.00,,2013-04-14 00:21:00,
2013-04-13 17:32:00,50.0,49.0,29.62,South,171,1.0,8.0,95,0.00,,,0.00,,2013-04-14 00:32:00,
2013-04-13 17:41:00,50.0,49.0,29.62,South,171,1.0,8.0,95,0.00,,,0.00,,2013-04-14 00:41:00,
2013-04-13 17:52:00,50.0,49.0,29.62,South,175,2.0,7.0,95,0.00,,,0.00,,2013-04-14 00:52:00,
2013-04-13 18:01:00,51.0,50.0,29.62,South,181,2.0,6.0,95,0.00,,,0.00,,2013-04-14 01:01:00,
2013-04-13 18:12:00,51.0,50.0,29.62,South,181,2.0,6.0,95,0.00,,,0.00,,2013-04-14 01:12:00,
2013-04-13 18:22:00,51.0,50.0,29.62,North,0,0.0,5.0,95,0.00,,,0.00,,2013-04-14 01:22:00,
2013-04-13 18:32:00,51.0,50.0,29.62,North,0,0.0,5.0,95,0.00,,,0.00,,2013-04-14 01:32:00,
2013-04-13 18:42:00,51.0,50.0,29.62,North,0,0.0,5.0,95,0.00,,,0.00,,2013-04-14 01:42:00,
2013-04-13 18:52:00,51.0,50.0,29.62,North,0,0.0,0.0,95,0.00,,,0.00,,2013-04-14 01:52:00,
2013-04-13 19:03:00,51.0,-99.9,29.62,North,0,0.0,0.0,-999,0.00,,,0.00,,2013-04-14 02:03:00,
2013-04-13 19:12:00,50.0,49.0,29.62,North,0,0.0,1.0,95,0.00,,,0.00,,2013-04-14 02:12:00,
2013-04-13 19:21:00,50.0,49.0,29.62,North,0,0.0,1.0,95,0.00,,,0.00,,2013-04-14 02:21:00,
2013-04-13 19:32:00,50.0,49.0,29.62,North,0,0.0,1.0,95,0.00,,,0.00,,2013-04-14 02:32:00,
2013-04-13 19:41:00,50.0,49.0,29.62,North,0,0.0,1.0,95,0.00,,,0.00,,2013-04-14 02:41:00,
2013-04-13 19:53:00,50.0,49.0,29.63,SSW,201,1.0,4.0,95,0.00,,,0.00,,2013-04-14 02:53:00,
2013-04-13 20:12:00,49.0,48.0,29.63,WSW,244,5.0,9.0,96,0.00,,,0.00,,2013-04-14 03:12:00,
2013-04-13 20:21:00,49.0,48.0,29.63,North,0,0.0,0.0,96,0.00,,,0.00,,2013-04-14 03:21:00,
2013-04-13 20:33:00,49.0,48.0,29.63,North,0,0.0,0.0,96,0.00,,,0.00,,2013-04-14 03:33:00,
2013-04-13 20:42:00,49.0,48.0,29.63,North,0,0.0,0.0,96,0.00,,,0.00,,2013-04-14 03:42:00,
2013-04-13 20:53:00,49.0,48.0,29.65,North,0,0.0,1.0,96,0.00,,,0.00,,2013-04-14 03:53:00,
2013-04-13 21:02:00,49.0,48.0,29.65,North,0,0.0,0.0,95,0.00,,,0.00,,2013-04-14 04:02:00,
2013-04-13 21:12:00,49.0,48.0,29.65,North,0,0.0,0.0,95,0.00,,,0.00,,2013-04-14 04:12:00,
2013-04-13 21:22:00,48.0,47.0,29.66,North,0,0.0,0.0,96,0.00,,,0.00,,2013-04-14 04:22:00,
2013-04-13 21:32:00,48.0,47.0,29.66,North,0,0.0,0.0,96,0.00,,,0.00,,2013-04-14 04:32:00,
2013-04-13 21:42:00,48.0,47.0,29.66,North,0,0.0,0.0,96,0.00,,,0.00,,2013-04-14 04:42:00,
2013-04-13 21:52:00,49.0,48.0,29.66,North,0,0.0,0.0,96,0.00,,,0.00,,2013-04-14 04:52:00,
2013-04-13 22:01:00,49.0,48.0,29.67,North,0,0.0,0.0,96,0.00,,,0.00,,2013-04-14 05:01:00,
2013-04-13 22:12:00,49.0,48.0,29.67,North,0,0.0,0.0,96,0.00,,,0.00,,2013-04-14 05:12:00,
2013-04-13 22:22:00,49.0,48.0,29.67,North,0,0.0,0.0,96,0.00,,,0.00,,2013-04-14 05:22:00,
2013-04-13 22:32:00,49.0,48.0,29.67,North,0,0.0,0.0,96,0.00,,,0.00,,2013-04-14 05:32:00,
2013-04-13 22:42:00,49.0,48.0,29.67,North,0,0.0,0.0,96,0.00,,,0.00,,2013-04-14 05:42:00,
2013-04-13 22:52:00,49.0,48.0,29.67,ENE,74,1.0,4.0,96,0.00,,,0.00,,2013-04-14 05:52:00,
2013-04-13 23:01:00,49.0,48.0,29.67,North,0,0.0,5.0,96,0.00,,,0.00,,2013-04-14 06:01:00,
2013-04-13 23:12:00,49.0,48.0,29.67,North,0,0.0,5.0,96,0.00,,,0.00,,2013-04-14 06:12:00,
2013-04-13 23:21:00,49.0,48.0,29.67,ESE,103,4.0,7.0,96,0.00,,,0.00,,2013-04-14 06:21:00,
2013-04-13 23:32:00,49.0,48.0,29.67,ESE,103,4.0,7.0,96,0.00,,,0.00,,2013-04-14 06:32:00,
2013-04-13 23:42:00,49.0,48.0,29.67,ESE,103,4.0,7.0,96,0.00,,,0.00,,2013-04-14 06:42:00,
2013-04-13 23:52:00,49.0,48.0,29.66,East,101,6.0,8.0,96,0.00,,,0.00,,2013-04-14 06:52:00,